EW7556 Weather Reports


time (UTC)temp
C
wind
direction
speed
KPH
gust
KPH
rain 1hr
cm
rain 24hr
cm
rain mn
cm
humidity
%
barometer
mb
20260508184613 10 236 0.0 11.3 0.00 0.00 0.00 82 1020.8
20260508183100 10 188 4.8 11.3 0.00 0.00 0.00 81 1020.7
20260508181551 10 207 3.2 8.0 0.00 0.00 0.00 81 1020.8
20260508174600 10 228 4.8 11.3 0.00 0.00 0.00 83 1020.5
20260508173100 10 219 3.2 11.3 0.00 0.00 0.00 84 1020.1
20260508171604 10 236 1.6 9.7 0.00 0.00 0.00 84 1020.2
20260508170106 10 198 1.6 8.0 0.00 0.00 0.00 84 1020.1
20260508164552 10 182 3.2 9.7 0.00 0.00 0.00 85 1019.8
20260508163116 10 205 3.2 16.1 0.00 0.00 0.00 85 1019.6
20260508161601 10 218 4.8 11.3 0.00 0.00 0.00 85 1019.3
20260508160103 10 227 6.4 12.9 0.00 0.00 0.00 85 1019.2
20260508154553 10 228 3.2 8.0 0.00 0.00 0.00 85 1019.2
20260508153056 10 191 3.2 6.4 0.00 0.00 0.00 86 1019.2
20260508151554 10 176 3.2 9.7 0.00 0.00 0.00 87 1018.8
20260508150106 10 219 6.4 11.3 0.00 0.00 0.00 88 1019.1
20260508144551 10 188 3.2 8.0 0.00 0.00 0.00 88 1018.9
20260508143053 10 185 3.2 9.7 0.00 0.00 0.00 88 1018.7
20260508141558 9 188 3.2 9.7 0.00 0.00 0.00 88 1018.6
20260508140057 9 120 3.2 12.9 0.00 0.00 0.00 89 1018.4
20260508134544 9 219 3.2 11.3 0.00 0.00 0.00 89 1018.2
20260508133047 9 212 1.6 12.9 0.00 0.00 0.00 90 1018.1
20260508131553 8 186 0.0 6.4 0.00 0.00 0.00 90 1017.7
20260508130104 8 218 1.6 4.8 0.00 0.00 0.00 90 1017.7
20260508124535 8 188 1.6 6.4 0.00 0.00 0.00 90 1017.7
20260508123040 8 215 3.2 8.0 0.00 0.00 0.00 91 1017.6
20260508121541 8 210 3.2 6.4 0.00 0.00 0.00 91 1017.6
20260508120045 8 189 3.2 8.0 0.00 0.00 0.00 91 1017.8
20260508114528 8 220 1.6 6.4 0.00 0.00 0.00 92 1017.5
20260508113037 8 188 1.6 6.4 0.00 0.00 0.00 92 1017.5
20260508111537 7 188 1.6 4.8 0.00 0.00 0.00 92 1017.5
20260508110053 6 214 0.0 3.2 0.00 0.00 0.00 92 1017.3
20260508104525 6 214 0.0 0.0 0.00 0.00 0.00 92 1017.0
20260508103035 6 214 0.0 1.6 0.00 0.00 0.00 92 1017.1
20260508101536 6 214 0.0 0.0 0.00 0.00 0.00 92 1017.0
20260508100016 6 214 0.0 0.0 0.00 0.00 0.00 92 1017.0
20260508094518 6 214 0.0 0.0 0.00 0.00 0.00 92 1016.9
20260508093039 6 214 0.0 0.0 0.00 0.00 0.00 92 1016.8
20260508091525 6 214 0.0 0.0 0.00 0.00 0.00 92 1016.6
20260508090023 6 214 0.0 3.2 0.00 0.00 0.00 92 1016.7
20260508084521 6 214 0.0 1.6 0.00 0.00 0.00 92 1016.7
20260508083022 6 214 0.0 0.0 0.00 0.00 0.00 92 1016.6
20260508081517 6 214 0.0 0.0 0.00 0.00 0.00 92 1016.6
20260508080047 6 214 0.0 0.0 0.00 0.00 0.00 92 1016.7
20260508074535 6 214 0.0 0.0 0.00 0.00 0.00 92 1016.8
20260508073031 6 214 0.0 0.0 0.00 0.00 0.00 92 1016.6
20260508071535 6 214 0.0 0.0 0.00 0.00 0.00 92 1016.9
20260508070048 6 214 0.0 0.0 0.00 0.00 0.00 91 1016.9
20260508064532 6 214 0.0 0.0 0.00 0.00 0.00 91 1017.0
20260508063036 6 214 0.0 0.0 0.00 0.00 0.00 91 1017.1
20260508061539 6 214 0.0 0.0 0.00 0.00 0.00 91 1017.0
20260508060044 6 214 0.0 0.0 0.00 0.00 0.00 91 1017.2
20260508054527 7 214 0.0 0.0 0.00 0.00 0.00 91 1017.3
20260508053031 7 214 0.0 0.0 0.00 0.00 0.00 91 1017.4
20260508051506 7 214 0.0 1.6 0.00 0.00 0.00 90 1017.4
20260508050124 7 214 0.0 0.0 0.00 0.00 0.00 90 1017.4
20260508044507 7 214 0.0 0.0 0.00 0.00 0.00 89 1017.3
20260508043015 8 214 0.0 0.0 0.00 0.00 0.00 88 1017.3
20260508041519 8 214 0.0 0.0 0.00 0.00 0.00 87 1017.4
20260508040008 9 214 0.0 1.6 0.00 0.00 0.00 87 1017.3
20260508034512 10 214 0.0 0.0 0.00 0.00 0.00 86 1017.4
20260508033017 10 214 0.0 3.2 0.00 0.00 0.00 85 1017.5
20260508031514 10 238 0.0 4.8 0.00 0.00 0.00 84 1017.4
20260508030125 10 213 1.6 6.4 0.00 0.00 0.00 83 1017.5
20260508024505 10 219 3.2 8.0 0.00 0.00 0.00 84 1017.5
20260508023016 10 204 3.2 12.9 0.00 0.00 0.00 84 1017.7
20260508021514 10 231 3.2 9.7 0.00 0.00 0.00 84 1017.9
20260508020121 10 197 4.8 11.3 0.00 0.00 0.00 84 1018.0
20260508014506 11 220 3.2 14.5 0.00 0.00 0.00 82 1018.1
20260508013006 11 210 6.4 12.9 0.00 0.00 0.00 80 1018.2
20260508011509 12 203 6.4 16.1 0.00 0.00 0.00 82 1018.3
20260508010117 12 225 8.0 14.5 0.00 0.00 0.00 81 1018.3
20260508004517 12 211 4.8 12.9 0.00 0.00 0.00 79 1018.3
20260508003019 13 200 4.8 11.3 0.00 0.00 0.00 75 1018.4
20260508001526 15 217 4.8 9.7 0.00 0.00 0.00 71 1018.3
20260508000004 15 239 1.6 6.4 0.00 0.00 0.00 71 1018.3
20260507234508 15 230 3.2 6.4 0.00 0.00 0.00 72 1018.4
20260507233011 15 339 1.6 4.8 0.00 0.00 0.00 73 1018.4
20260507231515 15 323 3.2 8.0 0.00 0.00 0.00 73 1018.5
20260507230121 16 301 3.2 9.7 0.00 0.00 0.00 73 1018.6
20260507224503 16 347 3.2 9.7 0.00 0.00 0.00 70 1018.7
20260507223007 16 342 1.6 6.4 0.00 0.00 0.00 71 1018.8
20260507221524 16 355 3.2 8.0 0.00 0.00 0.00 71 1019.0
20260507220004 16 344 1.6 8.0 0.00 0.00 0.00 71 1019.1
20260507214508 16 326 0.0 8.0 0.00 0.00 0.00 72 1019.2
20260507213123 15 342 1.6 6.4 0.00 0.00 0.00 72 1019.4
20260507211530 15 353 1.6 9.7 0.00 0.00 0.00 71 1019.6
20260507210042 15 276 1.6 8.0 0.00 0.00 0.00 74 1019.7